Погода в Чикаго

США     41°52′32″N   87°37′25″W
темп.,
°C
ветер,
м/с
пор.,
м/с
влажн.,
%
обл.,
%
осадки,
мм/ч
давл.,
гПа
погр.,
м
21 октября, чт
чт2101:00+18ююз71182100 2.2 1009420
04:00+17зюз71170100 0.1 10091109
07:00+12зюз91173100 0.1 1009853
10:00+12з10107298 0.0 1011961
13:00+12з9107689 0.1 1012867
16:00+12сз8985100 0.3 1013794
19:00+12ссз9980100 0.4 10151033
22:00+12ссз6766100 0.1 10171058
22 октября, пт
пт2201:00+11ссз556899 0.1 1017834
04:00+10сз436869 0.0 1017712
07:00+10зсз446975 0.0 1017553
10:00+10зсз3368100 0.0 1017604
13:00+11ссз2354100 0.0 1016702
16:00+11ссв435792 0.0 1015498
19:00+11с3352100 0.0 1016982
22:00+12сз43445 0.0 10161009
23 октября, сб
сб2301:00+11сз454499 0.0 1016842
04:00+10сз44475 0.0 1016678
07:00+10сз44506 0.0 1017658
10:00+10сз33515 0.0 1018638
13:00+10с22505 0.0 1017618
16:00+11св334864 0.0 1016569
19:00+11всв445298 0.0 1016625
22:00+12всв545623 0.0 1016682
24 октября, вс
вс2401:00+12всв5558100 0.0 1016819
04:00+12в8768100 0.0 1015837
07:00+11в9872100 0.0 1015769
10:00+10в9981100 2.4 1016772
13:00+10в101090100 6.3 1014687
16:00+11всв121293100 4.5 1013773
19:00+11в151691100 6.3 1011674
22:00+11в141593100 5.5 1011820
25 октября, пн
пн2501:00+11вюв111193100 15.8 1010617
04:00+12вюв141594100 0.8 1007609
07:00+13вюв9996100 3.1 1006582
10:00+14в5593100 2.1 1008472
13:00+11всв131289100 2.7 1010724
16:00+11всв111188100 0.4 1014939
19:00+11всв101187100 0.8 10161000
22:00+11всв9985100 0.5 1018928